| time (UTC) | temp F | wind direction | speed MPH | gust MPH | rain 1hr in | rain 24hr in | rain mn in | humidity % | barometer mb |
| 20260503005516 | 72 | 203 | 1.0 | 3.0 | 0.00 | 0.00 | 0.00 | 48 | 1017.2 |
| 20260503004516 | 73 | 203 | 1.0 | 4.0 | 0.00 | 0.00 | 0.00 | 47 | 1017.2 |
| 20260503003517 | 73 | 225 | 2.0 | 5.0 | 0.00 | 0.00 | 0.00 | 47 | 1017.1 |
| 20260503002516 | 74 | 248 | 1.0 | 3.0 | 0.00 | 0.00 | 0.00 | 47 | 1017.1 |
| 20260503001516 | 74 | 0.0 | 2.0 | 0.00 | 0.00 | 0.00 | 45 | 1017.1 | |
| 20260503000536 | 75 | 338 | 1.0 | 3.0 | 0.00 | 0.00 | 0.00 | 45 | 1017.1 |
| 20260502235516 | 75 | 0.0 | 2.0 | 0.00 | 0.00 | 0.00 | 45 | 1017.2 | |
| 20260502234517 | 76 | 338 | 1.0 | 2.0 | 0.00 | 0.00 | 0.00 | 44 | 1017.2 |
| 20260502233516 | 76 | 0.0 | 2.0 | 0.00 | 0.00 | 0.00 | 45 | 1017.3 | |
| 20260502232516 | 77 | 315 | 2.0 | 4.0 | 0.00 | 0.00 | 0.00 | 42 | 1017.4 |
| 20260502231517 | 77 | 270 | 1.0 | 2.0 | 0.00 | 0.00 | 0.00 | 43 | 1017.4 |
| 20260502230517 | 77 | 270 | 1.0 | 3.0 | 0.00 | 0.00 | 0.00 | 44 | 1017.5 |
| 20260502225556 | 77 | 270 | 1.0 | 4.0 | 0.00 | 0.00 | 0.00 | 44 | 1017.5 |
| 20260502224516 | 77 | 180 | 2.0 | 4.0 | 0.00 | 0.00 | 0.00 | 45 | 1017.5 |
| 20260502223516 | 77 | 180 | 1.0 | 3.0 | 0.00 | 0.00 | 0.00 | 44 | 1017.7 |
| 20260502222516 | 77 | 135 | 1.0 | 2.0 | 0.00 | 0.00 | 0.00 | 42 | 1017.7 |
| 20260502221517 | 77 | 135 | 1.0 | 3.0 | 0.00 | 0.00 | 0.00 | 43 | 1017.8 |
| 20260502220516 | 77 | 113 | 1.0 | 2.0 | 0.00 | 0.00 | 0.00 | 45 | 1017.8 |
| 20260502215516 | 78 | 180 | 2.0 | 3.0 | 0.00 | 0.00 | 0.00 | 41 | 1017.9 |
| 20260502214537 | 79 | 180 | 1.0 | 2.0 | 0.00 | 0.00 | 0.00 | 41 | 1018.0 |
| 20260502213537 | 79 | 203 | 2.0 | 7.0 | 0.00 | 0.00 | 0.00 | 44 | 1018.2 |
| 20260502212517 | 78 | 68 | 2.0 | 4.0 | 0.00 | 0.00 | 0.00 | 44 | 1018.3 |
| 20260502211516 | 78 | 45 | 2.0 | 4.0 | 0.00 | 0.00 | 0.00 | 42 | 1018.5 |
| 20260502210517 | 79 | 180 | 1.0 | 2.0 | 0.00 | 0.00 | 0.00 | 43 | 1018.7 |
| 20260502205516 | 79 | 315 | 2.0 | 5.0 | 0.00 | 0.00 | 0.00 | 43 | 1018.7 |
| 20260502204516 | 79 | 338 | 2.0 | 4.0 | 0.00 | 0.00 | 0.00 | 45 | 1018.8 |
| 20260502203517 | 78 | 45 | 2.0 | 7.0 | 0.00 | 0.00 | 0.00 | 45 | 1019.0 |
| 20260502202516 | 78 | 23 | 2.0 | 5.0 | 0.00 | 0.00 | 0.00 | 41 | 1019.1 |
| 20260502201516 | 77 | 90 | 2.0 | 6.0 | 0.00 | 0.00 | 0.00 | 42 | 1019.1 |
| 20260502200536 | 78 | 338 | 1.0 | 5.0 | 0.00 | 0.00 | 0.00 | 41 | 1019.4 |
| 20260502195516 | 77 | 158 | 2.0 | 4.0 | 0.00 | 0.00 | 0.00 | 42 | 1019.3 |
| 20260502194516 | 77 | 0 | 1.0 | 4.0 | 0.00 | 0.00 | 0.00 | 46 | 1019.5 |
| 20260502193517 | 76 | 45 | 1.0 | 4.0 | 0.00 | 0.00 | 0.00 | 46 | 1019.6 |
| 20260502192516 | 76 | 45 | 2.0 | 5.0 | 0.00 | 0.00 | 0.00 | 45 | 1019.6 |
| 20260502191516 | 76 | 23 | 2.0 | 5.0 | 0.00 | 0.00 | 0.00 | 43 | 1019.6 |
| 20260502190516 | 76 | 0 | 2.0 | 4.0 | 0.00 | 0.00 | 0.00 | 42 | 1019.7 |
| 20260502185517 | 75 | 45 | 2.0 | 7.0 | 0.00 | 0.00 | 0.00 | 41 | 1019.9 |
| 20260502184516 | 76 | 90 | 1.0 | 4.0 | 0.00 | 0.00 | 0.00 | 42 | 1020.0 |
| 20260502183516 | 76 | 113 | 2.0 | 4.0 | 0.00 | 0.00 | 0.00 | 40 | 1020.2 |
| 20260502182516 | 76 | 113 | 2.0 | 3.0 | 0.00 | 0.00 | 0.00 | 46 | 1020.2 |
| 20260502181516 | 75 | 338 | 1.0 | 3.0 | 0.00 | 0.00 | 0.00 | 40 | 1020.5 |
| 20260502180516 | 74 | 338 | 2.0 | 8.0 | 0.00 | 0.00 | 0.00 | 38 | 1020.6 |
| 20260502170516 | 72 | 90 | 1.0 | 4.0 | 0.00 | 0.00 | 0.00 | 44 | 1021.3 |
| 20260502163516 | 71 | 45 | 2.0 | 5.0 | 0.00 | 0.00 | 0.00 | 47 | 1021.4 |
| 20260502162516 | 71 | 45 | 2.0 | 5.0 | 0.00 | 0.00 | 0.00 | 47 | 1021.3 |
| 20260502161516 | 71 | 45 | 1.0 | 8.0 | 0.00 | 0.00 | 0.00 | 47 | 1021.3 |
| 20260502160516 | 71 | 338 | 2.0 | 4.0 | 0.00 | 0.00 | 0.00 | 47 | 1021.4 |
| 20260502151516 | 67 | 338 | 2.0 | 3.0 | 0.00 | 0.00 | 0.00 | 59 | 1021.0 |
| 20260502150516 | 66 | 315 | 2.0 | 4.0 | 0.00 | 0.00 | 0.00 | 64 | 1021.0 |
| 20260502130537 | 51 | 180 | 1.0 | 2.0 | 0.00 | 0.00 | 0.00 | 94 | 1020.2 |
| 20260502123516 | 49 | 0.0 | 1.0 | 0.00 | 0.00 | 0.00 | 94 | 1019.8 | |
| 20260502122516 | 48 | 0.0 | 0.0 | 0.00 | 0.00 | 0.00 | 93 | 1019.7 | |
| 20260502121536 | 47 | 0.0 | 0.0 | 0.00 | 0.00 | 0.00 | 93 | 1019.4 | |
| 20260502120516 | 47 | 0.0 | 0.0 | 0.00 | 0.00 | 0.00 | 92 | 1019.3 | |
| 20260502115516 | 47 | 0.0 | 0.0 | 0.00 | 0.00 | 0.00 | 92 | 1019.0 | |
| 20260502114516 | 47 | 0.0 | 0.0 | 0.00 | 0.00 | 0.00 | 92 | 1019.0 | |
| 20260502113516 | 47 | 0.0 | 0.0 | 0.00 | 0.00 | 0.00 | 92 | 1018.9 | |
| 20260502112516 | 47 | 0.0 | 0.0 | 0.00 | 0.00 | 0.00 | 92 | 1018.8 | |
| 20260502111524 | 47 | 0.0 | 0.0 | 0.00 | 0.00 | 0.00 | 92 | 1018.5 | |
| 20260502111016 | 47 | 0.0 | 0.0 | 0.00 | 0.00 | 0.00 | 92 | 1018.4 | |
| 20260502110017 | 47 | 0.0 | 0.0 | 0.00 | 0.00 | 0.00 | 91 | 1018.1 | |
| 20260502105017 | 47 | 0.0 | 0.0 | 0.00 | 0.00 | 0.00 | 92 | 1018.1 | |
| 20260502104016 | 47 | 0.0 | 0.0 | 0.00 | 0.00 | 0.00 | 91 | 1018.0 | |
| 20260502103016 | 47 | 0.0 | 1.0 | 0.00 | 0.00 | 0.00 | 91 | 1018.0 | |
| 20260502102016 | 47 | 0.0 | 0.0 | 0.00 | 0.00 | 0.00 | 91 | 1018.2 | |
| 20260502101036 | 47 | 0.0 | 0.0 | 0.00 | 0.00 | 0.00 | 91 | 1018.3 | |
| 20260502091036 | 49 | 0.0 | 0.0 | 0.00 | 0.00 | 0.00 | 90 | 1017.8 | |
| 20260502071036 | 51 | 0.0 | 0.0 | 0.00 | 0.00 | 0.00 | 87 | 1018.0 | |
| 20260502070016 | 51 | 0.0 | 0.0 | 0.00 | 0.00 | 0.00 | 87 | 1018.1 | |
| 20260502065016 | 52 | 0.0 | 0.0 | 0.00 | 0.00 | 0.00 | 87 | 1018.2 | |
| 20260502064016 | 52 | 0.0 | 0.0 | 0.00 | 0.00 | 0.00 | 87 | 1018.2 | |
| 20260502063016 | 52 | 0.0 | 0.0 | 0.00 | 0.00 | 0.00 | 86 | 1018.2 | |
| 20260502062016 | 53 | 0.0 | 1.0 | 0.00 | 0.00 | 0.00 | 86 | 1018.1 | |
| 20260502061016 | 53 | 0.0 | 0.0 | 0.00 | 0.00 | 0.00 | 85 | 1018.0 | |
| 20260502060017 | 54 | 0.0 | 0.0 | 0.00 | 0.00 | 0.00 | 85 | 1018.0 | |
| 20260502055016 | 54 | 0.0 | 0.0 | 0.00 | 0.00 | 0.00 | 84 | 1018.0 | |
| 20260502054016 | 54 | 0.0 | 0.0 | 0.00 | 0.00 | 0.00 | 83 | 1017.9 | |
| 20260502053016 | 54 | 0.0 | 0.0 | 0.00 | 0.00 | 0.00 | 83 | 1017.9 | |
| 20260502052016 | 55 | 0.0 | 0.0 | 0.00 | 0.00 | 0.00 | 82 | 1018.0 | |
| 20260502051017 | 55 | 0.0 | 0.0 | 0.00 | 0.00 | 0.00 | 82 | 1018.0 | |
| 20260502050016 | 56 | 0.0 | 0.0 | 0.00 | 0.00 | 0.00 | 81 | 1018.1 | |
| 20260502045017 | 56 | 0.0 | 0.0 | 0.00 | 0.00 | 0.00 | 80 | 1017.9 | |
| 20260502044017 | 57 | 0.0 | 1.0 | 0.00 | 0.00 | 0.00 | 80 | 1018.0 | |
| 20260502043017 | 57 | 0.0 | 0.0 | 0.00 | 0.00 | 0.00 | 78 | 1017.9 | |
| 20260502042017 | 57 | 0.0 | 1.0 | 0.00 | 0.00 | 0.00 | 78 | 1017.9 | |
| 20260502041017 | 58 | 0.0 | 0.0 | 0.00 | 0.00 | 0.00 | 77 | 1017.7 | |
| 20260502040037 | 58 | 0.0 | 0.0 | 0.00 | 0.00 | 0.00 | 77 | 1017.6 | |
| 20260502035017 | 58 | 0.0 | 2.0 | 0.00 | 0.00 | 0.00 | 77 | 1017.7 | |
| 20260502034037 | 58 | 0.0 | 1.0 | 0.00 | 0.00 | 0.00 | 76 | 1017.6 | |
| 20260502033017 | 59 | 0.0 | 2.0 | 0.00 | 0.00 | 0.00 | 76 | 1017.5 | |
| 20260502032017 | 59 | 0.0 | 1.0 | 0.00 | 0.00 | 0.00 | 74 | 1017.5 | |
| 20260502031017 | 60 | 0.0 | 1.0 | 0.00 | 0.00 | 0.00 | 73 | 1017.5 | |
| 20260502030017 | 60 | 0.0 | 2.0 | 0.00 | 0.00 | 0.00 | 73 | 1017.3 | |
| 20260502025017 | 60 | 0.0 | 0.0 | 0.00 | 0.00 | 0.00 | 73 | 1017.3 | |
| 20260502024017 | 61 | 68 | 1.0 | 2.0 | 0.00 | 0.00 | 0.00 | 73 | 1017.0 |
| 20260502023017 | 61 | 68 | 1.0 | 3.0 | 0.00 | 0.00 | 0.00 | 74 | 1016.7 |
| 20260502022017 | 61 | 0.0 | 1.0 | 0.00 | 0.00 | 0.00 | 76 | 1016.7 | |
| 20260502021037 | 61 | 0.0 | 0.0 | 0.00 | 0.00 | 0.00 | 74 | 1016.8 | |
| 20260502020017 | 62 | 0.0 | 1.0 | 0.00 | 0.00 | 0.00 | 74 | 1016.4 | |
| 20260502015057 | 62 | 0.0 | 0.0 | 0.00 | 0.00 | 0.00 | 74 | 1016.3 | |
| 20260502014017 | 62 | 0.0 | 0.0 | 0.00 | 0.00 | 0.00 | 74 | 1016.1 | |
| 20260502013037 | 63 | 0.0 | 0.0 | 0.00 | 0.00 | 0.00 | 71 | 1016.0 | |
| 20260502012017 | 63 | 0.0 | 0.0 | 0.00 | 0.00 | 0.00 | 72 | 1015.7 | |
| 20260502011017 | 64 | 0.0 | 0.0 | 0.00 | 0.00 | 0.00 | 71 | 1015.4 | |
| 20260502010017 | 64 | 0.0 | 0.0 | 0.00 | 0.00 | 0.00 | 70 | 1015.4 |